DW7346 Weather Reports


Display with metric or nautical units.
time (UTC)temp
F
wind
direction
speed
MPH
gust
MPH
rain 1hr
in
rain 24hr
in
rain mn
in
humidity
%
barometer
mb
20260906134520 82 79 0.0 0.0 0.00 0.00 0.00 83 1011.1
20260906133020 81 79 0.0 2.0 0.00 0.00 0.00 85 1011.1
20260906131526 79 172 0.0 2.0 0.00 0.00 0.00 87 1011.1
20260906130032 79 157 0.0 0.0 0.00 0.00 0.00 88 1010.9
20260906124516 78 188 0.0 0.0 0.00 0.00 0.00 87 1010.8
20260906123014 78 188 0.0 0.0 0.00 0.00 0.00 86 1010.7
20260906121514 79 188 0.0 0.0 0.00 0.00 0.00 86 1010.6
20260906120010 79 188 0.0 0.0 0.00 0.00 0.00 86 1010.5
20260906114513 79 188 0.0 1.0 0.00 0.00 0.00 86 1010.4
20260906113008 79 189 0.0 1.0 0.00 0.00 0.00 85 1010.2
20260906111505 79 189 0.0 2.0 0.00 0.00 0.00 85 1010.1
20260906110007 79 191 0.0 1.0 0.00 0.00 0.00 85 1010.1
20260906104508 79 191 0.0 1.0 0.00 0.00 0.00 84 1009.8
20260906103001 79 191 0.0 0.0 0.00 0.00 0.00 84 1009.8
20260906101600 80 191 0.0 0.0 0.00 0.00 0.00 83 1009.9
20260906100057 80 191 0.0 0.0 0.00 0.00 0.00 83 1009.7
20260906094637 80 191 0.0 0.0 0.00 0.00 0.00 82 1009.5
20260906093103 81 191 0.0 0.0 0.00 0.00 0.00 81 1009.4
20260906091552 81 191 0.0 3.0 0.00 0.00 0.00 81 1009.4
20260906090052 81 186 1.0 3.0 0.00 0.00 0.00 81 1009.2
20260906084551 81 172 0.0 4.0 0.00 0.00 0.00 81 1009.2
20260906083054 81 145 0.0 2.0 0.00 0.00 0.00 82 1009.2
20260906081554 81 119 0.0 2.0 0.00 0.00 0.00 82 1009.1
20260906080053 81 176 0.0 2.0 0.00 0.00 0.00 81 1009.0
20260906074548 82 176 0.0 1.0 0.00 0.00 0.00 80 1009.2
20260906073045 82 176 0.0 0.0 0.00 0.00 0.00 79 1009.4
20260906071542 82 176 0.0 0.0 0.00 0.00 0.00 78 1009.5
20260906070041 83 176 0.0 1.0 0.00 0.00 0.00 77 1009.5
20260906064541 83 176 0.0 1.0 0.00 0.00 0.00 77 1009.5
20260906063041 82 179 1.0 3.0 0.00 0.00 0.00 77 1009.4
20260906061542 83 124 0.0 4.0 0.00 0.00 0.00 77 1009.4
20260906060037 83 167 0.0 2.0 0.00 0.00 0.00 76 1009.6
20260906054534 84 122 0.0 2.0 0.00 0.00 0.00 74 1009.4
20260906053032 85 191 0.0 3.0 0.00 0.00 0.00 72 1009.5
20260906051530 85 122 0.0 2.0 0.00 0.00 0.00 72 1009.6
20260906050027 85 147 0.0 1.0 0.00 0.00 0.00 71 1009.7
20260906044533 85 109 0.0 2.0 0.00 0.00 0.00 70 1009.6
20260906043026 86 142 0.0 3.0 0.00 0.00 0.00 70 1009.4
20260906041526 86 138 0.0 2.0 0.00 0.00 0.00 69 1009.5
20260906040032 86 114 0.0 5.0 0.00 0.00 0.00 67 1009.3
20260906034524 87 112 0.0 1.0 0.00 0.00 0.00 67 1009.4
20260906033024 87 111 0.0 2.0 0.00 0.00 0.00 66 1009.3
20260906031540 88 113 0.0 2.0 0.00 0.00 0.00 65 1009.5
20260906030022 88 201 0.0 7.0 0.00 0.00 0.00 64 1009.5
20260906024522 88 121 1.0 7.0 0.00 0.00 0.00 63 1009.4
20260906023021 89 30 2.0 5.0 0.00 0.00 0.00 62 1009.1
20260906021522 89 96 2.0 10.0 0.00 0.00 0.00 62 1008.7
20260906020029 90 126 1.0 5.0 0.00 0.00 0.00 61 1008.7
20260906014520 92 169 2.0 6.0 0.00 0.00 0.00 58 1008.5
20260906013020 94 53 1.0 7.0 0.00 0.00 0.00 54 1008.1
20260906011519 94 102 0.0 3.0 0.00 0.00 0.00 50 1007.6
20260906010018 95 119 0.0 4.0 0.00 0.00 0.00 49 1007.5
20260906004518 96 92 1.0 6.0 0.00 0.00 0.00 47 1007.5
20260906003024 97 148 0.0 3.0 0.00 0.00 0.00 47 1007.5
20260906001518 98 83 0.0 4.0 0.00 0.00 0.00 46 1007.5
20260906000018 99 70 1.0 4.0 0.00 0.00 0.00 44 1007.4
20260905234516 99 98 0.0 4.0 0.00 0.00 0.00 44 1007.2
20260905233017 100 80 0.0 4.0 0.00 0.00 0.00 44 1007.2
20260905231515 100 58 1.0 4.0 0.00 0.00 0.00 44 1007.3
20260905230014 100 49 0.0 3.0 0.00 0.00 0.00 44 1007.2
20260905224514 100 103 0.0 4.0 0.00 0.00 0.00 44 1007.2
20260905223029 101 186 0.0 4.0 0.00 0.00 0.00 43 1007.2
20260905221532 101 52 1.0 5.0 0.00 0.00 0.00 42 1007.3
20260905220009 101 13 0.0 4.0 0.00 0.00 0.00 44 1007.5
20260905214506 101 153 1.0 3.0 0.00 0.00 0.00 43 1007.6
20260905213003 100 131 0.0 5.0 0.00 0.00 0.00 44 1007.8
20260905211600 100 193 1.0 6.0 0.00 0.00 0.00 45 1008.0
20260905210109 98 1 1.0 5.0 0.00 0.00 0.00 48 1008.1
20260905204556 100 334 2.0 6.0 0.00 0.00 0.00 44 1008.4
20260905203057 100 239 1.0 6.0 0.00 0.00 0.00 45 1008.7
20260905201557 99 211 1.0 4.0 0.00 0.00 0.00 46 1008.8
20260905200100 99 124 1.0 3.0 0.00 0.00 0.00 46 1009.0
20260905194545 99 215 0.0 5.0 0.00 0.00 0.00 47 1009.3
20260905193042 98 62 1.0 9.0 0.00 0.00 0.00 48 1009.4
20260905191542 98 119 1.0 5.0 0.00 0.00 0.00 50 1009.7
20260905190037 98 253 1.0 7.0 0.00 0.00 0.00 47 1010.0
20260905184537 97 78 2.0 7.0 0.00 0.00 0.00 50 1010.2
20260905183034 98 222 3.0 7.0 0.00 0.00 0.00 49 1010.5
20260905181532 97 107 0.0 6.0 0.00 0.00 0.00 51 1010.7
20260905180033 95 250 3.0 6.0 0.00 0.00 0.00 53 1010.9
20260905174526 95 165 1.0 5.0 0.00 0.00 0.00 54 1011.2
20260905173023 94 223 1.0 6.0 0.00 0.00 0.00 56 1011.2
20260905171537 94 155 3.0 7.0 0.00 0.00 0.00 57 1011.4
20260905170028 93 207 2.0 6.0 0.00 0.00 0.00 57 1011.5
20260905164519 93 199 2.0 5.0 0.00 0.00 0.00 58 1011.7
20260905163018 92 172 1.0 5.0 0.00 0.00 0.00 60 1011.7
20260905161514 91 240 0.0 3.0 0.00 0.00 0.00 63 1011.7
20260905160019 89 257 2.0 4.0 0.00 0.00 0.00 65 1011.7
20260905154505 89 269 1.0 7.0 0.00 0.00 0.00 68 1011.7
20260905153004 88 212 0.0 2.0 0.00 0.00 0.00 70 1011.7
20260905151502 87 273 1.0 6.0 0.00 0.00 0.00 70 1011.6
20260905150100 86 226 1.0 4.0 0.00 0.00 0.00 72 1011.5
20260905144600 85 220 2.0 6.0 0.00 0.00 0.00 72 1011.6
20260905143059 85 299 2.0 6.0 0.00 0.00 0.00 74 1011.5
20260905141558 84 178 2.0 6.0 0.00 0.00 0.00 76 1011.6
20260905140058 83 230 2.0 4.0 0.00 0.00 0.00 79 1011.5